Home > Weather > Mexicali > Past weeks

Flag for Mexico Past Weather in Mexicali, Baja California, Mexico — Yesterday and Last 2 Weeks

Now
70 °F

Clear.


Feels Like: 77 °F
Forecast: 65 / 92 °F
Wind: 7 mph from East

Location: Imperial County Airport

Current Time: May 29, 2016 at 6:30:42 AM

Latest Report: May 29, 2016 at 5:53 AM


Visibility: 10 mi

Pressure: 29.84 "Hg

Humidity: 39%

Dew Point: 44 °F

Location of MexicaliLocation

Past Weather in Mexicali — Graph

°F

Mexicali Temperature Yesterday

Maximum temperature yesterday: 97 °F (at 4:53 PM)
Minimum temperature yesterday: 65 °F (at 5:53 AM)
Average temperature yesterday: 82 °F

High & Low Weather Summary for the Past Weeks

 TemperatureHumidityPressure
High102 °F (May 14, 2:53 PM)68% (May 18, 5:53 AM)29.96 "Hg (May 18, 5:53 AM)
Low57 °F (May 22, 3:53 AM)8% (May 28, 5:53 PM)29.62 "Hg (May 19, 4:53 PM)
Average78 °F31%29.78 "Hg
* Reported May 14 4:53 AM — May 29 4:53 AM, Mexicali, Weather by CustomWeather, © 2016

Note: Actual official high and low records may vary slightly from our data, if they occured in-between our weather recording intervals... More about our weather records

Advertising

Mexicali Weather History for the Previous 24 Hours

Scroll right to see more
 ConditionsComfort  
Time TempWeatherWind HumidityBarometerVisibility
4:53 AM
Sun, May 29
71 °FClear.3 mph38%29.81 "Hg10 mi
3:53 AM71 °FClear.No wind45%29.80 "Hg10 mi
2:53 AM70 °FClear.No wind55%29.79 "Hg10 mi
1:53 AM72 °FClear.8 mph44%29.78 "Hg10 mi
12:53 AM73 °FClear.3 mph34%29.78 "Hg10 mi
11:53 PM
Sat, May 28
70 °FClear.No wind38%29.77 "Hg10 mi
10:53 PM77 °FClear.7 mph30%29.77 "Hg10 mi
9:53 PM80 °FClear.8 mph24%29.76 "Hg10 mi
8:53 PM83 °FClear.10 mph21%29.74 "Hg10 mi
7:53 PM86 °FSunny.10 mph18%29.72 "Hg10 mi
6:53 PM91 °FSunny.16 mph14%29.70 "Hg10 mi
5:53 PM95 °FSunny.20 mph8%29.69 "Hg10 mi
4:53 PM97 °FSunny.16 mph11%29.69 "Hg10 mi
3:53 PM95 °FSunny.8 mph14%29.69 "Hg10 mi
2:53 PM95 °FSunny.N/A17%29.71 "Hg10 mi
1:53 PM95 °FSunny.12 mph19%29.72 "Hg10 mi
12:53 PM93 °FSunny.7 mph21%29.75 "Hg10 mi
11:53 AM89 °FSunny.6 mph25%29.76 "Hg10 mi
10:53 AM87 °FSunny.6 mph28%29.77 "Hg10 mi
9:53 AM83 °FSunny.3 mph32%29.77 "Hg10 mi
8:53 AM78 °FSunny.3 mph37%29.77 "Hg10 mi
7:53 AM74 °FSunny.7 mph40%29.76 "Hg10 mi
6:53 AM70 °FSunny.5 mph39%29.75 "Hg10 mi
Weather by CustomWeather, © 2016

See weather overviewHow to use our weather pages